Regional Weather Roundup
Issued by NWS Little Rock, AR

Home | Current Version | Previous Version | Text Only | Print | Product List | Glossary Off
Versions: 1 2 3 4 5 6 7 8 9 10 11 12 13 14 15 16 17 18 19 20 21 22 23 24 25 26 27 28 29 30 31 32 33 34 35 36 37 38 39 40 41 42 43 44 45 46 47 48 49 50

000
ASUS44 KLZK 152205
RWRLZK

WEATHER ROUNDUP FOR ARKANSAS
NATIONAL WEATHER SERVICE LITTLE ROCK AR
400 PM CST MON JAN 15 2018

NOTE: "FAIR" INDICATES FEW OR NO CLOUDS BELOW 12,000 FEET WITH NO
SIGNIFICANT WEATHER AND/OR OBSTRUCTIONS TO VISIBILITY.

ARZ001-003-010-029-152300-
NORTHWEST ARKANSAS

CITY           SKY/WX    TMP DP  RH WIND       PRES   REMARKS
FAYETTEVILLE   CLOUDY    20  15  81 N9        30.46R WCI   9
FORT SMITH     CLOUDY    31  18  58 N16G26    30.48R WCI  20
HARRISON       FLURRIES  19  14  81 NW12G21   30.42R WCI   7
BENTONVILLE    CLOUDY    18  10  71 N9        30.48R WCI   7
ROGERS         CLOUDY    18  10  71 N9        30.47R WCI   7
SILOAM SPGS    CLOUDY    17   8  67 N15       30.49R WCI   2
HIGHFILL       CLOUDY    19  12  74 NW9       30.47  WCI   8
SPRINGDALE     CLOUDY    19  16  86 NW15      30.46R WCI   5
$$

ARZ004-005-016-152300-
NORTH CENTRAL ARKANSAS

CITY           SKY/WX    TMP DP  RH WIND       PRES   REMARKS
BATESVILLE     CLOUDY    34  26  72 NW6       30.41R WCI  29
FLIPPIN        LGT SNOW  24  20  84 NW12      30.46R FOG     WCI  13
MTN HOME       LGT SNOW  22  20  92 N6G20     30.43R FOG     WCI  14
$$

ARZ040-041-152300-
WEST CENTRAL ARKANSAS

CITY           SKY/WX    TMP DP  RH WIND       PRES   REMARKS
MENA           CLOUDY    43  32  65 N10       30.36R
MOUNT IDA      CLOUDY    48  25  40 N6        30.31R
$$

ARZ009-017-025-026-028-152300-
NORTHEAST ARKANSAS

CITY           SKY/WX    TMP DP  RH WIND       PRES   REMARKS
JONESBORO      CLOUDY    35  29  78 NW6       30.41R WCI  30
NEWPORT        FAIR      35  28  75 N14       30.41R WCI  26
WALNUT RIDGE   FLURRIES  30  27  88 NW17      30.42R WCI  18
BLYTHEVILLE    CLOUDY    33  33 100 N6        30.41R WCI  28
$$

ARZ022-023-033-042-044-152300-
CENTRAL ARKANSAS

CITY           SKY/WX    TMP DP  RH WIND       PRES   REMARKS
LITTLE ROCK    CLOUDY    45  27  49 NE9       30.36R
N LITTLE ROCK    N/A     43  30  59 NE7       30.41R
JACKSONVILLE   CLOUDY    44  30  57 N10       30.35R
SEARCY         CLOUDY    41  30  65 NE12      30.39R
HOT SPRINGS    CLOUDY    49  26  41 N5        30.34R
RUSSELLVILLE   CLOUDY    41  29  62 N13G18    30.38R
CLINTON        CLOUDY    34  25  69 N9        30.42R WCI  26
$$

ARZ036-152300-
EAST ARKANSAS

CITY           SKY/WX    TMP DP  RH WIND       PRES   REMARKS
WEST MEMPHIS   CLOUDY    37  32  82 N8        30.39R
$$

ARZ050-053-066-070-073-152300-
SOUTHWEST ARKANSAS

CITY           SKY/WX    TMP DP  RH WIND       PRES   REMARKS
ARKADELPHIA    CLOUDY    45  33  63 CALM      30.35S
CAMDEN         CLOUDY    45  27  49 NW6       30.34R
TEXARKANA      CLOUDY    44  33  65 NE6       30.32S
EL DORADO      CLOUDY    56  42  59 N6        30.30S
DE QUEEN       CLOUDY    46  34  62 CALM      30.33R
$$

ARZ056-057-069-152300-
SOUTHEAST ARKANSAS

CITY           SKY/WX    TMP DP  RH WIND       PRES   REMARKS
PINE BLUFF     CLOUDY    43  37  79 N9        30.36R
STUTTGART      CLOUDY    41  30  65 CALM      30.37R
MONTICELLO     CLOUDY    51  34  52 NE10      30.32R

$$





USA.gov is the U.S. government's official web portal to all federal, state and local government web resources and services.